This is the latest recevied weather packets stored in our database for station/object SP1BMW-13. If no packets are shown the sender has not sent any weather packets the latest 10 day(s).
| Time | Temp. | Humidity | Pressure | Rain* | Wind** | Luminosity | Snow |
|---|---|---|---|---|---|---|---|
| 1778263621 | 12.22° C | 55% | 1019.4 hPa | 0 mm | 0.89 m/s, 262° | 15 W/m² | - |
| 1778263561 | 12.22° C | 55% | 1019.4 hPa | 0 mm | 0 m/s | 16 W/m² | - |
| 1778263501 | 12.22° C | 55% | 1019.3 hPa | 0 mm | 0.45 m/s, 328° | 17 W/m² | - |
| 1778263441 | 12.78° C | 54% | 1019.4 hPa | 0 mm | 0.45 m/s, 272° | 17 W/m² | - |
| 1778263381 | 12.78° C | 55% | 1019.5 hPa | 0 mm | 0 m/s | 18 W/m² | - |
| 1778263321 | 12.78° C | 55% | 1019.3 hPa | 0 mm | 0 m/s | 19 W/m² | - |
| 1778263261 | 12.78° C | 54% | 1019.5 hPa | 0 mm | 0 m/s | 19 W/m² | - |
| 1778263201 | 12.78° C | 54% | 1019.3 hPa | 0 mm | 0.45 m/s, 301° | 20 W/m² | - |
| 1778263141 | 12.78° C | 54% | 1019.5 hPa | 0 mm | 0.45 m/s, 303° | 21 W/m² | - |
| 1778263081 | 12.78° C | 55% | 1019.3 hPa | 0 mm | 0.45 m/s, 331° | 23 W/m² | - |
| 1778263021 | 12.78° C | 54% | 1019.3 hPa | 0 mm | 0 m/s | 24 W/m² | - |
| 1778262961 | 12.78° C | 53% | 1019.2 hPa | 0 mm | 0.45 m/s, 238° | 25 W/m² | - |
| 1778262901 | 12.78° C | 53% | 1019.4 hPa | 0 mm | 0.45 m/s, 335° | 26 W/m² | - |
| 1778262841 | 12.78° C | 53% | 1019.3 hPa | 0 mm | 0.45 m/s, 310° | 26 W/m² | - |
| 1778262781 | 12.78° C | 53% | 1019.3 hPa | 0 mm | 0 m/s | 27 W/m² | - |
| 1778262721 | 12.78° C | 53% | 1019.1 hPa | 0 mm | 0.45 m/s, 296° | 27 W/m² | - |
| 1778262661 | 12.78° C | 53% | 1019.5 hPa | 0 mm | 0 m/s | 28 W/m² | - |
| 1778262601 | 12.78° C | 52% | 1019.4 hPa | 0 mm | 0 m/s | 28 W/m² | - |
| 1778262541 | 12.78° C | 52% | 1019.3 hPa | 0 mm | 0.45 m/s, 342° | 29 W/m² | - |
| 1778262481 | 12.78° C | 52% | 1019.4 hPa | 0 mm | 0.45 m/s, 303° | 29 W/m² | - |
| 1778262421 | 12.78° C | 52% | 1019.3 hPa | 0 mm | 0.45 m/s, 315° | 29 W/m² | - |
| 1778262361 | 12.78° C | 52% | 1019.4 hPa | 0 mm | 0.89 m/s, 302° | 29 W/m² | - |
| 1778262301 | 12.78° C | 52% | 1019.2 hPa | 0 mm | 0.45 m/s, 298° | 28 W/m² | - |
| 1778262241 | 12.78° C | 51% | 1019.2 hPa | 0 mm | 1.79 m/s, 340° | 28 W/m² | - |
| 1778262181 | 13.33° C | 52% | 1019.3 hPa | 0 mm | 0.89 m/s, 273° | 28 W/m² | - |
* Rain latest hour (hover to see other rain measurements)
** Current wind speed in m/s (hover to see current wind gust speed)